Find Starlink 36436

NORAD ID: 67626 Int'l Des: 2026-020 Owner: SPXS Country: US Constellation: starlink operational
LEOCIRCULAR

Live-Position

3D-Globus wird geladen...

Über Starlink 36436

Beschreibung wird geladen...

Nächste Überflüge

Passes for default location (London). Set your location on the main map for personalized predictions.

Höhenverlauf

Loading altitude history...

Zweizeiliger Elementsatz

1 67626U 26020K 26106.79190016 .00009121 00000-0 34051-3 0 9994
2 67626 42.9994 284.3448 0000806 269.0677 91.0083 15.27584969 11942
Epoch: 16. Apr. 2026 • Age: 23 hours

Aktueller Status

Höhe 482.2 km
Geschwindigkeit 7.63 km/s
Subsatellitenpunkt 11.15°N, 24.31°W
Startdatum 30. Jan. 2026
Alter 0.2 years
Typ internet

Technische Details

Klassifizierung Payload
Masse 575.00 kg
Trockenmasse 530.00 kg
Gesamtmasse 575.00 kg
Länge 0.30 m
Durchmesser 4.10 m
Spannweite 29.00 m
Form Box + pan
Hersteller SPXS
Bus-Typ Starlink V2MO
Phasenstatus In Orbit
Besitzer/Staat SPXS/US

Most Searched